Location: *
(51.1248°S, 108.4023°W)
Time: 12:23:57
(UTC+00:00)

USA 281 - Pass Details

Date: 31 October 2021
Orbit: 1078 x 1081 km, 106.0° (Epoch: 25 November)

Event Time Altitude Azimuth Distance (km) Brightness Sun altitude
Exits shadow 02:44:20 - 38° (NE) 3,596 5.4 -4.8°
Reaches altitude 10° 02:46:06 10° 39° (NE) 2,930 4.9 -5.1°
Maximum altitude 02:52:40 73° 122° (ESE) 1,145 3.3 -5.9°
Drops below altitude 10° 02:59:17 10° 204° (SSW) 2,960 6.5 -6.8°
Sets 03:01:50 0° 206° (SSW) 3,921 7.3 -7.1°
